SL-12 DEB, 41681

Orbit data source: Space-Track

SL-12 DEB, 41681 is space debris in HEO originally from a launch on Fri, 26 Oct 2007 UTC launched from the Tyuratam Missile And Space Complex (TTMTR). Debris objects in space refer to the collection of defunct objects orbiting the Earth. Examples of debris include non-operational satellites, rocket bodies, and fragments generated from explosions, collisions, or faulty payload assembly.

Loading next visibility...
Identifier
41681, 2007-052N
Orbit
HEO
Country
Flag of CISCIS
Related business
Manufacturer
RKKE
Mission
Spacecraft
Bus & Motor
Unknown
Mass
Unknown
Launch date (UTC)
2007-10-26 (19 years ago)
Launch vehicle
Unknown
Launch site
Tyuratam Missile And Space Complex (TTMTR)
Object type
Payload
Rocket body
Debris
Shape & HBR
Unknown shape, 0.2 m
Radar Cross Section
Medium (>0.1 m² and <1 m²)

Expand to show TLE details & history
Last TLE update: 1 day ago

TLE from 1 day ago
0 SL-12 DEB
1 41681U 07052N   26263.99907021  .00001594  00000-0  62098-3 0  9997
2 41681  64.9459 142.7147 5739463 193.4077 140.5529  4.40205628193160
Epoch: 2026-09-20T23:58Z
TLE epoch observation values (Epoch: 2026-09-20T23:58:39.666Z)
Latitude
0.00004°
Longitude
143.1708°
Altitude
17,502.161 km
Speed
2.836 km/s
True Right ascension
09h 30m 53s
True Declination
0° 00' 00"
Sunlit
Object was in daylight at epoch
Visualization orbit readout
Latitude
Unknown
Longitude
Unknown
Altitude
Unknown
Speed
Unknown
Apparent Right ascension
Unknown
Apparent Declination
Unknown
Sunlit
N/A
Visualization observer readout
Local Sidereal Time
19:22:06
Azimuth
Unknown
Elevation
Unknown
Doppler factor
Unknown
Orbital elements
Apogee altitude
18,372.655 km
Perigee altitude
321.689 km
Semi-major axis
15,725.309 km
Eccentricity
0.57395
Inclination
64.9459°
RAAN
142.7147°
Arg. of periapsis
193.4077°
True anomaly
166.64589°
Mean anomaly
140.5529°
Eccentric anomaly
154.63839°
Mean motion
1.10064 °/min
Orbital period
327.08 mins
BSTAR
0.00062098
Loading maneuver chart data...
Computing Atmospheric mass density...
Loading historical data...
Loading historical data...
Loading historical data...
Loading historical data...
Loading historical data...
Loading historical data...
Loading historical data...

Documentation

Showing up to 5 results
|